Time,TemperatureF,DewpointF,PressureIn,WindDirection,WindDirectionDegrees,WindSpeedMPH,WindSpeedGustMPH,Humidity,HourlyPrecipIn,Conditions,Clouds,dailyrainin,SoftwareType,DateUTC
2013-01-23 00:00:00,5.0,-0.6,28.92,ENE,72,1.0,1.0,77,0.00,,,0.00,Wunderground v.1.15,2013-01-23 05:00:00,
2013-01-23 00:10:00,4.9,-0.5,28.92,ENE,72,1.0,1.0,78,0.00,,,0.00,Wunderground v.1.15,2013-01-23 05:10:00,
2013-01-23 00:15:00,4.9,-0.5,28.92,ENE,57,1.0,3.0,78,0.00,,,0.00,Wunderground v.1.15,2013-01-23 05:15:00,
2013-01-23 00:20:00,4.9,-0.5,28.92,NE,55,1.0,3.0,78,0.00,,,0.00,Wunderground v.1.15,2013-01-23 05:20:00,
2013-01-23 00:25:00,4.9,-0.5,28.92,North,3,2.0,3.0,78,0.00,,,0.00,Wunderground v.1.15,2013-01-23 05:25:00,
2013-01-23 00:35:00,4.9,-0.5,28.92,North,8,2.0,3.0,78,0.00,,,0.00,Wunderground v.1.15,2013-01-23 05:35:00,
2013-01-23 00:40:00,4.9,-0.5,28.92,North,7,2.0,2.0,78,0.00,,,0.00,Wunderground v.1.15,2013-01-23 05:40:00,
2013-01-23 00:50:00,4.7,-0.7,28.92,NNE,22,1.0,1.0,78,0.00,,,0.00,Wunderground v.1.15,2013-01-23 05:50:00,
2013-01-23 01:00:00,4.5,-0.8,28.92,NNE,21,1.0,6.0,78,0.00,,,0.00,Wunderground v.1.15,2013-01-23 06:00:00,
2013-01-23 01:10:00,4.3,-1.0,28.92,NE,52,1.0,6.0,78,0.00,,,0.00,Wunderground v.1.15,2013-01-23 06:10:00,
2013-01-23 01:15:00,4.3,-0.8,28.92,NE,53,1.0,6.0,79,0.00,,,0.00,Wunderground v.1.15,2013-01-23 06:15:00,
2013-01-23 01:20:00,4.4,-0.7,28.92,NE,54,1.0,6.0,79,0.00,,,0.00,Wunderground v.1.15,2013-01-23 06:20:00,
2013-01-23 01:25:00,4.4,-0.7,28.92,NE,54,1.0,6.0,79,0.00,,,0.00,Wunderground v.1.15,2013-01-23 06:25:00,
2013-01-23 01:30:00,4.3,-1.0,28.92,NE,54,0.0,6.0,78,0.00,,,0.00,Wunderground v.1.15,2013-01-23 06:30:00,
2013-01-23 01:35:00,4.2,-1.1,28.92,NE,54,0.0,6.0,78,0.00,,,0.00,Wunderground v.1.15,2013-01-23 06:35:00,
2013-01-23 01:40:00,4.0,-1.3,28.92,NE,54,0.0,6.0,78,0.00,,,0.00,Wunderground v.1.15,2013-01-23 06:40:00,
2013-01-23 01:50:00,3.8,-1.5,28.92,NE,54,0.0,6.0,78,0.00,,,0.00,Wunderground v.1.15,2013-01-23 06:50:00,
2013-01-23 01:55:00,3.7,-1.6,28.92,NE,53,0.0,6.0,78,0.00,,,0.00,Wunderground v.1.15,2013-01-23 06:55:00,
2013-01-23 02:00:00,3.6,-1.7,28.92,NE,53,0.0,2.0,78,0.00,,,0.00,Wunderground v.1.15,2013-01-23 07:00:00,
2013-01-23 02:10:00,3.4,-1.7,28.92,NE,53,0.0,2.0,79,0.00,,,0.00,Wunderground v.1.15,2013-01-23 07:10:00,
2013-01-23 02:15:00,3.4,-1.7,28.92,NE,53,0.0,2.0,79,0.00,,,0.00,Wunderground v.1.15,2013-01-23 07:15:00,
2013-01-23 02:25:00,3.5,-1.6,28.92,NE,53,0.0,2.0,79,0.00,,,0.00,Wunderground v.1.15,2013-01-23 07:25:00,
2013-01-23 02:30:00,3.6,-1.5,28.92,NE,53,0.0,2.0,79,0.00,,,0.00,Wunderground v.1.15,2013-01-23 07:30:00,
2013-01-23 02:35:00,3.5,-1.6,28.92,NE,53,0.0,2.0,79,0.00,,,0.00,Wunderground v.1.15,2013-01-23 07:35:00,
2013-01-23 02:40:00,3.5,-1.6,28.92,NE,53,0.0,2.0,79,0.00,,,0.00,Wunderground v.1.15,2013-01-23 07:40:00,
2013-01-23 02:45:00,3.4,-1.7,28.92,NE,53,0.0,2.0,79,0.00,,,0.00,Wunderground v.1.15,2013-01-23 07:45:00,
2013-01-23 02:55:00,3.4,-1.7,28.92,NE,53,0.0,2.0,79,0.00,,,0.00,Wunderground v.1.15,2013-01-23 07:55:00,
2013-01-23 03:00:00,3.3,-1.7,28.92,NE,53,0.0,3.0,79,0.00,,,0.00,Wunderground v.1.15,2013-01-23 08:00:00,
2013-01-23 03:10:00,3.3,-1.7,28.92,NE,53,0.0,3.0,79,0.00,,,0.00,Wunderground v.1.15,2013-01-23 08:10:00,
2013-01-23 03:15:00,3.4,-1.7,28.92,NE,53,0.0,3.0,79,0.00,,,0.00,Wunderground v.1.15,2013-01-23 08:15:00,
2013-01-23 03:20:00,3.4,-1.7,28.92,NE,53,0.0,3.0,79,0.00,,,0.00,Wunderground v.1.15,2013-01-23 08:20:00,
2013-01-23 03:30:00,3.6,-1.5,28.92,NE,53,0.0,3.0,79,0.00,,,0.00,Wunderground v.1.15,2013-01-23 08:30:00,
2013-01-23 03:35:00,3.7,-1.4,28.92,NE,53,0.0,3.0,79,0.00,,,0.00,Wunderground v.1.15,2013-01-23 08:35:00,
2013-01-23 03:40:00,3.8,-1.5,28.92,NE,53,0.0,3.0,78,0.00,,,0.00,Wunderground v.1.15,2013-01-23 08:40:00,
2013-01-23 03:45:00,3.8,-1.5,28.92,NE,53,0.0,3.0,78,0.00,,,0.00,Wunderground v.1.15,2013-01-23 08:45:00,
2013-01-23 03:55:00,3.8,-1.5,28.92,NE,53,0.0,3.0,78,0.00,,,0.00,Wunderground v.1.15,2013-01-23 08:55:00,
2013-01-23 04:00:00,3.8,-1.5,28.92,NE,53,0.0,3.0,78,0.00,,,0.00,Wunderground v.1.15,2013-01-23 09:00:00,
2013-01-23 04:10:00,3.7,-1.6,28.92,NE,53,0.0,3.0,78,0.00,,,0.00,Wunderground v.1.15,2013-01-23 09:10:00,
2013-01-23 04:15:00,3.7,-1.6,28.92,NE,53,0.0,3.0,78,0.00,,,0.00,Wunderground v.1.15,2013-01-23 09:15:00,
2013-01-23 04:25:00,3.6,-1.7,28.92,NE,53,0.0,3.0,78,0.00,,,0.00,Wunderground v.1.15,2013-01-23 09:25:00,
2013-01-23 04:34:00,3.9,-1.2,28.92,NE,53,0.0,3.0,79,0.00,,,0.00,Wunderground v.1.15,2013-01-23 09:34:00,
2013-01-23 04:40:00,4.2,-0.9,28.92,NE,54,0.0,3.0,79,0.00,,,0.00,Wunderground v.1.15,2013-01-23 09:40:00,
2013-01-23 04:45:00,4.5,-0.6,28.92,NE,55,0.0,3.0,79,0.00,,,0.00,Wunderground v.1.15,2013-01-23 09:45:00,
2013-01-23 04:50:00,4.8,-0.3,28.92,East,90,1.0,3.0,79,0.00,,,0.00,Wunderground v.1.15,2013-01-23 09:50:00,
2013-01-23 04:55:00,5.2,-0.2,28.92,East,94,2.0,3.0,78,0.00,,,0.00,Wunderground v.1.15,2013-01-23 09:55:00,
2013-01-23 05:00:00,5.5,0.1,28.92,East,101,2.0,6.0,78,0.00,,,0.00,Wunderground v.1.15,2013-01-23 10:00:00,
2013-01-23 05:10:00,5.8,0.1,28.92,East,86,3.0,3.0,77,0.00,,,0.00,Wunderground v.1.15,2013-01-23 10:10:00,
2013-01-23 05:15:00,5.8,0.1,28.92,ENE,76,2.0,6.0,77,0.00,,,0.00,Wunderground v.1.15,2013-01-23 10:15:00,
2013-01-23 05:20:00,5.9,0.2,28.92,East,101,3.0,3.0,77,0.00,,,0.00,Wunderground v.1.15,2013-01-23 10:20:00,
2013-01-23 05:25:00,5.9,0.2,28.92,East,86,3.0,6.0,77,0.00,,,0.00,Wunderground v.1.15,2013-01-23 10:25:00,
2013-01-23 05:35:00,6.0,0.3,28.92,East,97,2.0,5.0,77,0.00,,,0.00,Wunderground v.1.15,2013-01-23 10:35:00,
2013-01-23 05:40:00,6.1,0.4,28.92,ENE,64,2.0,6.0,77,0.00,,,0.00,Wunderground v.1.15,2013-01-23 10:40:00,
2013-01-23 05:45:00,6.0,0.3,28.92,ESE,122,3.0,6.0,77,0.00,,,0.00,Wunderground v.1.15,2013-01-23 10:45:00,
2013-01-23 05:50:00,6.0,0.3,28.92,East,93,5.0,5.0,77,0.00,,,0.00,Wunderground v.1.15,2013-01-23 10:50:00,
2013-01-23 05:55:00,6.0,0.3,28.92,ESE,115,4.0,6.0,77,0.00,,,0.00,Wunderground v.1.15,2013-01-23 10:55:00,
2013-01-23 06:00:00,6.0,0.3,28.92,ESE,109,2.0,2.0,77,0.00,,,0.00,Wunderground v.1.15,2013-01-23 11:00:00,
2013-01-23 06:10:00,6.0,0.6,28.92,ESE,105,2.0,11.0,78,0.00,,,0.00,Wunderground v.1.15,2013-01-23 11:10:00,
2013-01-23 06:15:00,6.1,0.7,28.92,East,99,2.0,11.0,78,0.00,,,0.00,Wunderground v.1.15,2013-01-23 11:15:00,
2013-01-23 06:20:00,6.1,1.0,28.92,East,93,3.0,3.0,79,0.00,,,0.00,Wunderground v.1.15,2013-01-23 11:20:00,
2013-01-23 06:25:00,6.1,1.0,28.92,East,97,3.0,11.0,79,0.00,,,0.00,Wunderground v.1.15,2013-01-23 11:25:00,
2013-01-23 06:30:00,6.1,1.0,28.92,East,81,3.0,11.0,79,0.00,,,0.00,Wunderground v.1.15,2013-01-23 11:30:00,
2013-01-23 06:40:00,6.2,1.4,28.92,ESE,111,2.0,2.0,80,0.00,,,0.00,Wunderground v.1.15,2013-01-23 11:40:00,
2013-01-23 06:45:00,6.2,1.6,28.92,East,93,2.0,11.0,81,0.00,,,0.00,Wunderground v.1.15,2013-01-23 11:45:00,
2013-01-23 06:50:00,6.2,1.6,28.92,East,87,2.0,11.0,81,0.00,,,0.00,Wunderground v.1.15,2013-01-23 11:50:00,
2013-01-23 06:55:00,6.1,1.8,28.92,East,90,2.0,11.0,82,0.00,,,0.00,Wunderground v.1.15,2013-01-23 11:55:00,
2013-01-23 07:00:00,6.1,1.8,28.92,East,93,2.0,2.0,82,0.00,,,0.00,Wunderground v.1.15,2013-01-23 12:00:00,
2013-01-23 07:09:00,6.1,2.0,28.92,East,98,1.0,11.0,83,0.00,,,0.00,Wunderground v.1.15,2013-01-23 12:09:00,
2013-01-23 07:14:00,6.2,2.4,28.92,East,93,2.0,11.0,84,0.00,,,0.00,Wunderground v.1.15,2013-01-23 12:14:00,
2013-01-23 07:20:00,6.2,2.4,28.92,East,93,2.0,11.0,84,0.00,,,0.00,Wunderground v.1.15,2013-01-23 12:20:00,
2013-01-23 07:25:00,6.2,2.7,28.92,East,97,2.0,11.0,85,0.00,,,0.00,Wunderground v.1.15,2013-01-23 12:25:00,
2013-01-23 07:30:00,6.2,2.7,28.92,ESE,104,2.0,2.0,85,0.00,,,0.00,Wunderground v.1.15,2013-01-23 12:30:00,
2013-01-23 07:40:00,6.3,2.8,28.92,SE,125,2.0,11.0,85,0.00,,,0.00,Wunderground v.1.15,2013-01-23 12:40:00,
2013-01-23 07:45:00,6.3,2.8,28.92,East,101,2.0,11.0,85,0.00,,,0.00,Wunderground v.1.15,2013-01-23 12:45:00,
2013-01-23 07:50:00,6.3,2.8,28.92,East,101,2.0,2.0,85,0.00,,,0.00,Wunderground v.1.15,2013-01-23 12:50:00,
2013-01-23 07:55:00,6.3,2.8,28.92,ESE,122,1.0,11.0,85,0.00,,,0.00,Wunderground v.1.15,2013-01-23 12:55:00,
2013-01-23 08:05:00,6.3,3.0,28.92,ESE,107,1.0,9.0,86,0.00,,,0.00,Wunderground v.1.15,2013-01-23 13:05:00,
2013-01-23 08:10:00,6.4,3.1,28.92,ESE,110,1.0,9.0,86,0.00,,,0.00,Wunderground v.1.15,2013-01-23 13:10:00,
2013-01-23 08:15:00,6.4,3.1,28.92,ESE,107,1.0,9.0,86,0.00,,,0.00,Wunderground v.1.15,2013-01-23 13:15:00,
2013-01-23 08:20:00,6.3,3.0,28.92,East,93,2.0,9.0,86,0.00,,,0.00,Wunderground v.1.15,2013-01-23 13:20:00,
2013-01-23 08:25:00,6.3,3.0,28.92,East,88,3.0,9.0,86,0.00,,,0.00,Wunderground v.1.15,2013-01-23 13:25:00,
2013-01-23 08:30:00,6.4,3.1,28.92,ESE,113,3.0,3.0,86,0.00,,,0.00,Wunderground v.1.15,2013-01-23 13:30:00,
2013-01-23 08:35:00,6.5,3.2,28.92,East,82,2.0,9.0,86,0.00,,,0.00,Wunderground v.1.15,2013-01-23 13:35:00,
2013-01-23 08:40:00,6.6,3.3,28.92,East,87,3.0,3.0,86,0.00,,,0.00,Wunderground v.1.15,2013-01-23 13:40:00,
2013-01-23 08:50:00,6.8,3.8,28.92,ESE,117,2.0,9.0,87,0.00,,,0.00,Wunderground v.1.15,2013-01-23 13:50:00,
2013-01-23 08:55:00,6.8,3.8,28.92,East,80,2.0,9.0,87,0.00,,,0.00,Wunderground v.1.15,2013-01-23 13:55:00,
2013-01-23 09:00:00,6.8,3.8,28.92,East,89,3.0,3.0,87,0.00,,,0.00,Wunderground v.1.15,2013-01-23 14:00:00,
2013-01-23 09:10:00,6.8,3.8,28.92,East,98,3.0,8.0,87,0.00,,,0.00,Wunderground v.1.15,2013-01-23 14:10:00,
2013-01-23 09:15:00,6.8,3.8,28.92,East,97,3.0,8.0,87,0.00,,,0.00,Wunderground v.1.15,2013-01-23 14:15:00,
2013-01-23 09:25:00,6.9,3.8,28.92,ESE,103,3.0,8.0,87,0.00,,,0.00,Wunderground v.1.15,2013-01-23 14:25:00,
2013-01-23 09:30:00,6.9,3.8,28.92,East,85,4.0,8.0,87,0.00,,,0.00,Wunderground v.1.15,2013-01-23 14:30:00,
2013-01-23 09:35:00,7.1,4.0,28.92,ESE,115,4.0,8.0,87,0.00,,,0.00,Wunderground v.1.15,2013-01-23 14:35:00,
2013-01-23 09:40:00,7.2,4.1,28.92,East,99,4.0,8.0,87,0.00,,,0.00,Wunderground v.1.15,2013-01-23 14:40:00,
2013-01-23 09:45:00,7.0,3.9,28.92,East,99,4.0,8.0,87,0.00,,,0.00,Wunderground v.1.15,2013-01-23 14:45:00,
2013-01-23 09:55:00,7.2,4.1,28.92,East,94,3.0,5.0,87,0.00,,,0.00,Wunderground v.1.15,2013-01-23 14:55:00,
2013-01-23 10:00:00,7.2,4.1,28.92,ESE,106,4.0,4.0,87,0.00,,,0.00,Wunderground v.1.15,2013-01-23 15:00:00,
2013-01-23 10:10:00,7.4,4.3,28.92,ESE,102,4.0,4.0,87,0.00,,,0.00,Wunderground v.1.15,2013-01-23 15:10:00,
2013-01-23 10:15:00,7.8,4.7,28.92,East,101,2.0,10.0,87,0.00,,,0.00,Wunderground v.1.15,2013-01-23 15:15:00,
2013-01-23 10:20:00,8.4,5.6,28.92,ESE,108,1.0,1.0,88,0.00,,,0.00,Wunderground v.1.15,2013-01-23 15:20:00,
2013-01-23 10:30:00,8.4,5.3,28.92,SSE,159,2.0,2.0,87,0.00,,,0.00,Wunderground v.1.15,2013-01-23 15:30:00,
2013-01-23 10:35:00,8.1,5.0,28.92,ESE,113,2.0,4.0,87,0.00,,,0.00,Wunderground v.1.15,2013-01-23 15:35:00,
2013-01-23 10:40:00,7.9,4.8,28.92,East,93,3.0,10.0,87,0.00,,,0.00,Wunderground v.1.15,2013-01-23 15:40:00,
2013-01-23 10:45:00,8.1,5.0,28.92,ENE,67,2.0,10.0,87,0.00,,,0.00,Wunderground v.1.15,2013-01-23 15:45:00,
2013-01-23 10:50:00,8.4,5.3,28.92,ESE,103,2.0,2.0,87,0.00,,,0.00,Wunderground v.1.15,2013-01-23 15:50:00,
2013-01-23 11:00:00,8.9,5.8,28.92,ESE,110,3.0,3.0,87,0.00,,,0.00,Wunderground v.1.15,2013-01-23 16:00:00,
2013-01-23 11:10:00,9.2,5.6,28.92,ESE,118,3.0,7.0,85,0.00,,,0.00,Wunderground v.1.15,2013-01-23 16:10:00,
2013-01-23 11:20:00,9.2,5.3,28.92,SE,126,3.0,3.0,84,0.00,,,0.00,Wunderground v.1.15,2013-01-23 16:20:00,
2013-01-23 11:25:00,9.3,5.4,28.92,SSE,149,3.0,4.0,84,0.00,,,0.00,Wunderground v.1.15,2013-01-23 16:25:00,
2013-01-23 11:34:00,8.7,4.9,28.92,SE,144,3.0,3.0,84,0.00,,,0.00,Wunderground v.1.15,2013-01-23 16:34:00,
2013-01-23 11:39:00,8.7,4.9,28.92,SSE,154,3.0,3.0,84,0.00,,,0.00,Wunderground v.1.15,2013-01-23 16:39:00,
2013-01-23 11:45:00,9.2,5.6,28.92,South,174,2.0,5.0,85,0.00,,,0.00,Wunderground v.1.15,2013-01-23 16:45:00,
2013-01-23 11:50:00,8.7,4.9,28.92,SSE,149,3.0,7.0,84,0.00,,,0.00,Wunderground v.1.15,2013-01-23 16:50:00,
2013-01-23 12:00:00,7.5,3.4,28.92,SSE,149,4.0,11.0,83,0.00,,,0.00,Wunderground v.1.15,2013-01-23 17:00:00,
2013-01-23 12:10:00,7.7,3.9,28.92,SE,132,3.0,3.0,84,0.00,,,0.00,Wunderground v.1.15,2013-01-23 17:10:00,
2013-01-23 12:15:00,7.8,4.0,28.92,ESE,103,3.0,5.0,84,0.00,,,0.00,Wunderground v.1.15,2013-01-23 17:15:00,
2013-01-23 12:20:00,8.0,4.2,28.92,SE,139,4.0,4.0,84,0.00,,,0.00,Wunderground v.1.15,2013-01-23 17:20:00,
2013-01-23 12:25:00,8.2,4.4,28.92,SE,127,3.0,11.0,84,0.00,,,0.00,Wunderground v.1.15,2013-01-23 17:25:00,
2013-01-23 12:35:00,8.6,4.2,28.92,SE,134,3.0,11.0,82,0.00,,,0.00,Wunderground v.1.15,2013-01-23 17:35:00,
2013-01-23 12:40:00,8.7,4.3,28.92,SE,134,3.0,3.0,82,0.00,,,0.00,Wunderground v.1.15,2013-01-23 17:40:00,
2013-01-23 12:45:00,8.9,4.3,28.92,SE,139,2.0,11.0,81,0.00,,,0.00,Wunderground v.1.15,2013-01-23 17:45:00,
2013-01-23 12:55:00,9.1,4.5,28.92,SSE,166,2.0,11.0,81,0.00,,,0.00,Wunderground v.1.15,2013-01-23 17:55:00,
2013-01-23 13:00:00,9.1,4.5,28.92,SE,139,2.0,7.0,81,0.00,,,0.00,Wunderground v.1.15,2013-01-23 18:00:00,
2013-01-23 13:10:00,9.0,4.1,28.92,SSE,155,2.0,7.0,80,0.00,,,0.00,Wunderground v.1.15,2013-01-23 18:10:00,
2013-01-23 13:15:00,9.1,4.2,28.92,SSE,149,2.0,7.0,80,0.00,,,0.00,Wunderground v.1.15,2013-01-23 18:15:00,
2013-01-23 13:20:00,8.8,3.6,28.92,SE,139,2.0,2.0,79,0.00,,,0.00,Wunderground v.1.15,2013-01-23 18:20:00,
2013-01-23 13:25:00,8.8,3.6,28.92,ESE,112,2.0,7.0,79,0.00,,,0.00,Wunderground v.1.15,2013-01-23 18:25:00,
2013-01-23 13:30:00,8.6,3.4,28.92,South,175,2.0,7.0,79,0.00,,,0.00,Wunderground v.1.15,2013-01-23 18:30:00,
2013-01-23 13:40:00,7.4,2.3,28.92,SSW,205,4.0,4.0,79,0.00,,,0.00,Wunderground v.1.15,2013-01-23 18:40:00,
2013-01-23 13:45:00,7.4,2.3,28.92,SSW,198,3.0,5.0,79,0.00,,,0.00,Wunderground v.1.15,2013-01-23 18:45:00,
2013-01-23 13:50:00,7.2,2.3,28.92,South,186,3.0,7.0,80,0.00,,,0.00,Wunderground v.1.15,2013-01-23 18:50:00,
2013-01-23 13:55:00,7.1,2.2,28.92,SSW,196,4.0,7.0,80,0.00,,,0.00,Wunderground v.1.15,2013-01-23 18:55:00,
2013-01-23 14:00:00,7.2,2.3,28.92,South,186,4.0,4.0,80,0.00,,,0.00,Wunderground v.1.15,2013-01-23 19:00:00,
2013-01-23 14:10:00,7.4,2.5,28.92,South,188,3.0,8.0,80,0.00,,,0.00,Wunderground v.1.15,2013-01-23 19:10:00,
2013-01-23 14:15:00,7.3,2.4,28.92,South,186,4.0,8.0,80,0.00,,,0.00,Wunderground v.1.15,2013-01-23 19:15:00,
2013-01-23 14:20:00,7.6,2.7,28.92,South,186,2.0,8.0,80,0.00,,,0.00,Wunderground v.1.15,2013-01-23 19:20:00,
2013-01-23 14:25:00,7.6,2.4,28.92,South,186,2.0,8.0,79,0.00,,,0.00,Wunderground v.1.15,2013-01-23 19:25:00,
2013-01-23 14:30:00,7.6,2.4,28.92,South,187,2.0,8.0,79,0.00,,,0.00,Wunderground v.1.15,2013-01-23 19:30:00,
2013-01-23 14:35:00,7.4,2.0,28.92,South,188,2.0,8.0,78,0.00,,,0.00,Wunderground v.1.15,2013-01-23 19:35:00,
2013-01-23 14:45:00,7.6,2.2,28.92,South,187,2.0,8.0,78,0.00,,,0.00,Wunderground v.1.15,2013-01-23 19:45:00,
2013-01-23 14:50:00,7.6,1.9,28.92,South,187,2.0,8.0,77,0.00,,,0.00,Wunderground v.1.15,2013-01-23 19:50:00,
2013-01-23 14:55:00,7.7,2.0,28.92,South,187,1.0,8.0,77,0.00,,,0.00,Wunderground v.1.15,2013-01-23 19:55:00,
2013-01-23 15:00:00,7.8,2.1,28.92,South,187,1.0,1.0,77,0.00,,,0.00,Wunderground v.1.15,2013-01-23 20:00:00,
2013-01-23 15:10:00,7.9,1.9,28.92,South,187,0.0,5.0,76,0.00,,,0.00,Wunderground v.1.15,2013-01-23 20:10:00,
2013-01-23 15:20:00,8.0,2.0,28.92,South,187,0.0,5.0,76,0.00,,,0.00,Wunderground v.1.15,2013-01-23 20:20:00,
2013-01-23 15:25:00,8.0,2.0,28.92,South,187,0.0,5.0,76,0.00,,,0.00,Wunderground v.1.15,2013-01-23 20:25:00,
2013-01-23 15:30:00,8.1,2.1,28.92,South,187,0.0,5.0,76,0.00,,,0.00,Wunderground v.1.15,2013-01-23 20:30:00,
2013-01-23 15:35:00,8.0,1.7,28.92,South,187,0.0,5.0,75,0.00,,,0.00,Wunderground v.1.15,2013-01-23 20:35:00,
2013-01-23 15:40:00,8.0,1.7,28.92,South,187,0.0,5.0,75,0.00,,,0.00,Wunderground v.1.15,2013-01-23 20:40:00,
2013-01-23 15:50:00,8.1,1.8,28.92,South,187,0.0,5.0,75,0.00,,,0.00,Wunderground v.1.15,2013-01-23 20:50:00,
2013-01-23 15:54:00,8.0,1.7,28.92,South,187,0.0,5.0,75,0.00,,,0.00,Wunderground v.1.15,2013-01-23 20:54:00,
2013-01-23 16:00:00,7.9,1.3,28.92,South,188,1.0,3.0,74,0.00,,,0.00,Wunderground v.1.15,2013-01-23 21:00:00,
2013-01-23 16:10:00,7.7,1.1,28.92,South,188,1.0,1.0,74,0.00,,,0.00,Wunderground v.1.15,2013-01-23 21:10:00,
2013-01-23 16:15:00,7.6,1.0,28.92,South,188,1.0,3.0,74,0.00,,,0.00,Wunderground v.1.15,2013-01-23 21:15:00,
2013-01-23 16:24:00,7.4,1.1,28.92,South,188,0.0,3.0,75,0.00,,,0.00,Wunderground v.1.15,2013-01-23 21:24:00,
2013-01-23 16:29:00,7.3,1.0,28.92,South,188,0.0,3.0,75,0.00,,,0.00,Wunderground v.1.15,2013-01-23 21:29:00,
2013-01-23 16:35:00,7.0,0.7,28.92,South,188,0.0,3.0,75,0.00,,,0.00,Wunderground v.1.15,2013-01-23 21:35:00,
2013-01-23 16:40:00,6.5,0.3,28.92,South,188,0.0,3.0,75,0.00,,,0.00,Wunderground v.1.15,2013-01-23 21:40:00,
2013-01-23 16:45:00,6.0,-0.2,28.92,South,188,0.0,3.0,75,0.00,,,0.00,Wunderground v.1.15,2013-01-23 21:45:00,
2013-01-23 16:55:00,5.1,-1.1,28.92,South,188,0.0,3.0,75,0.00,,,0.00,Wunderground v.1.15,2013-01-23 21:55:00,
2013-01-23 17:00:00,4.7,-1.2,28.92,South,188,0.0,0.0,76,0.00,,,0.00,Wunderground v.1.15,2013-01-23 22:00:00,
2013-01-23 17:09:00,3.9,-2.0,28.92,South,188,0.0,0.0,76,0.00,,,0.00,Wunderground v.1.15,2013-01-23 22:09:00,
2013-01-23 17:14:00,2.8,-3.3,28.92,South,188,0.0,0.0,75,0.00,,,0.00,Wunderground v.1.15,2013-01-23 22:14:00,
2013-01-23 17:19:00,2.3,-3.3,28.92,South,188,0.0,0.0,77,0.00,,,0.00,Wunderground v.1.15,2013-01-23 22:19:00,
2013-01-23 17:25:00,2.2,-3.1,28.92,South,188,0.0,0.0,78,0.00,,,0.00,Wunderground v.1.15,2013-01-23 22:25:00,
2013-01-23 17:30:00,1.9,-3.4,28.92,South,188,0.0,0.0,78,0.00,,,0.00,Wunderground v.1.15,2013-01-23 22:30:00,
2013-01-23 17:35:00,1.5,-3.5,28.92,South,188,0.0,0.0,79,0.00,,,0.00,Wunderground v.1.15,2013-01-23 22:35:00,
2013-01-23 17:40:00,0.6,-4.6,28.92,South,188,0.0,0.0,78,0.00,,,0.00,Wunderground v.1.15,2013-01-23 22:40:00,
2013-01-23 17:45:00,0.4,-4.6,28.92,South,188,0.0,0.0,79,0.00,,,0.00,Wunderground v.1.15,2013-01-23 22:45:00,
2013-01-23 17:50:00,0.3,-4.7,28.92,South,188,0.0,0.0,79,0.00,,,0.00,Wunderground v.1.15,2013-01-23 22:50:00,
2013-01-23 18:00:00,1.0,-3.5,28.92,South,188,0.0,1.0,81,0.00,,,0.00,Wunderground v.1.15,2013-01-23 23:00:00,
2013-01-23 18:10:00,1.4,-2.8,28.92,South,188,0.0,1.0,82,0.00,,,0.00,Wunderground v.1.15,2013-01-23 23:10:00,
2013-01-23 18:15:00,1.6,-2.6,28.92,South,188,0.0,1.0,82,0.00,,,0.00,Wunderground v.1.15,2013-01-23 23:15:00,
2013-01-23 18:20:00,2.4,-1.6,28.92,South,188,0.0,1.0,83,0.00,,,0.00,Wunderground v.1.15,2013-01-23 23:20:00,
2013-01-23 18:30:00,4.1,0.3,28.92,SSW,197,1.0,1.0,84,0.00,,,0.00,Wunderground v.1.15,2013-01-23 23:30:00,
2013-01-23 18:35:00,4.3,0.3,28.92,SSW,197,1.0,1.0,83,0.00,,,0.00,Wunderground v.1.15,2013-01-23 23:35:00,
2013-01-23 18:40:00,4.4,0.4,28.92,SSW,197,0.0,1.0,83,0.00,,,0.00,Wunderground v.1.15,2013-01-23 23:40:00,
2013-01-23 18:45:00,4.4,0.1,28.92,SSW,197,0.0,1.0,82,0.00,,,0.00,Wunderground v.1.15,2013-01-23 23:45:00,
2013-01-23 18:50:00,4.4,0.1,28.92,SSW,197,0.0,1.0,82,0.00,,,0.00,Wunderground v.1.15,2013-01-23 23:50:00,
2013-01-23 18:55:00,4.2,-0.1,28.92,SSW,197,0.0,1.0,82,0.00,,,0.00,Wunderground v.1.15,2013-01-23 23:55:00,
2013-01-23 19:00:00,3.9,-0.4,28.92,SSW,197,0.0,2.0,82,0.00,,,0.00,Wunderground v.1.15,2013-01-24 00:00:00,
2013-01-23 19:10:00,3.5,-0.8,28.92,SSW,197,0.0,2.0,82,0.00,,,0.00,Wunderground v.1.15,2013-01-24 00:10:00,
2013-01-23 19:15:00,3.4,-0.9,28.92,SSW,197,0.0,2.0,82,0.00,,,0.00,Wunderground v.1.15,2013-01-24 00:15:00,
2013-01-23 19:20:00,3.4,-0.9,28.92,SSW,197,0.0,2.0,82,0.00,,,0.00,Wunderground v.1.15,2013-01-24 00:20:00,
2013-01-23 19:25:00,3.4,-0.6,28.92,SSW,197,0.0,2.0,83,0.00,,,0.00,Wunderground v.1.15,2013-01-24 00:25:00,
2013-01-23 19:35:00,3.2,-0.8,28.92,SSW,197,0.0,2.0,83,0.00,,,0.00,Wunderground v.1.15,2013-01-24 00:35:00,
2013-01-23 19:40:00,3.1,-0.9,28.92,SSW,197,0.0,2.0,83,0.00,,,0.00,Wunderground v.1.15,2013-01-24 00:40:00,
2013-01-23 19:45:00,3.0,-1.0,28.92,SSW,197,0.0,2.0,83,0.00,,,0.00,Wunderground v.1.15,2013-01-24 00:45:00,
2013-01-23 19:50:00,2.8,-1.2,28.92,SSW,197,0.0,2.0,83,0.00,,,0.00,Wunderground v.1.15,2013-01-24 00:50:00,
2013-01-23 19:55:00,2.6,-1.4,28.92,SSW,197,0.0,2.0,83,0.00,,,0.00,Wunderground v.1.15,2013-01-24 00:55:00,
2013-01-23 20:00:00,2.6,-1.4,28.92,SSW,197,0.0,0.0,83,0.00,,,0.00,Wunderground v.1.15,2013-01-24 01:00:00,
2013-01-23 20:09:00,2.6,-1.1,28.92,SSW,197,0.0,0.0,84,0.00,,,0.00,Wunderground v.1.15,2013-01-24 01:09:00,
2013-01-23 20:14:00,2.6,-1.1,28.92,SSW,197,0.0,0.0,84,0.00,,,0.00,Wunderground v.1.15,2013-01-24 01:14:00,
2013-01-23 20:20:00,2.5,-1.2,28.92,SSW,197,0.0,0.0,84,0.00,,,0.00,Wunderground v.1.15,2013-01-24 01:20:00,
2013-01-23 20:25:00,2.4,-1.3,28.92,SSW,197,0.0,0.0,84,0.00,,,0.00,Wunderground v.1.15,2013-01-24 01:25:00,
2013-01-23 20:30:00,2.6,-0.9,28.92,SSW,197,0.0,0.0,85,0.00,,,0.00,Wunderground v.1.15,2013-01-24 01:30:00,
2013-01-23 20:40:00,2.4,-1.1,28.92,SSW,197,0.0,0.0,85,0.00,,,0.00,Wunderground v.1.15,2013-01-24 01:40:00,
2013-01-23 20:45:00,2.3,-1.2,28.92,SSW,197,0.0,0.0,85,0.00,,,0.00,Wunderground v.1.15,2013-01-24 01:45:00,
2013-01-23 20:50:00,2.3,-1.2,28.92,SSW,197,0.0,0.0,85,0.00,,,0.00,Wunderground v.1.15,2013-01-24 01:50:00,
2013-01-23 20:55:00,2.4,-1.1,28.92,SSW,197,0.0,0.0,85,0.00,,,0.00,Wunderground v.1.15,2013-01-24 01:55:00,
2013-01-23 21:00:00,2.4,-1.1,28.92,SSW,197,0.0,0.0,85,0.00,,,0.00,Wunderground v.1.15,2013-01-24 02:00:00,
2013-01-23 21:10:00,2.3,-1.2,28.92,SSW,197,0.0,0.0,85,0.00,,,0.00,Wunderground v.1.15,2013-01-24 02:10:00,
2013-01-23 21:15:00,2.5,-0.7,28.92,SSW,197,0.0,0.0,86,0.00,,,0.00,Wunderground v.1.15,2013-01-24 02:15:00,
2013-01-23 21:20:00,2.6,-0.6,28.92,SSW,197,0.0,0.0,86,0.00,,,0.00,Wunderground v.1.15,2013-01-24 02:20:00,
2013-01-23 21:25:00,2.6,-0.6,28.92,SSW,197,0.0,0.0,86,0.00,,,0.00,Wunderground v.1.15,2013-01-24 02:25:00,
2013-01-23 21:30:00,2.4,-0.8,28.92,SSW,197,0.0,0.0,86,0.00,,,0.00,Wunderground v.1.15,2013-01-24 02:30:00,
2013-01-23 21:35:00,2.2,-1.0,28.92,SSW,197,0.0,0.0,86,0.00,,,0.00,Wunderground v.1.15,2013-01-24 02:35:00,
2013-01-23 21:45:00,1.9,-1.3,28.92,SSW,197,0.0,0.0,86,0.00,,,0.00,Wunderground v.1.15,2013-01-24 02:45:00,
2013-01-23 21:50:00,1.9,-1.3,28.92,SSW,197,0.0,0.0,86,0.00,,,0.00,Wunderground v.1.15,2013-01-24 02:50:00,
2013-01-23 21:55:00,1.8,-1.4,28.92,SSW,197,0.0,0.0,86,0.00,,,0.00,Wunderground v.1.15,2013-01-24 02:55:00,
2013-01-23 22:00:00,1.9,-1.3,28.92,SSW,197,0.0,0.0,86,0.00,,,0.00,Wunderground v.1.15,2013-01-24 03:00:00,
2013-01-23 22:10:00,2.0,-1.0,28.92,SSW,197,0.0,0.0,87,0.00,,,0.00,Wunderground v.1.15,2013-01-24 03:10:00,
2013-01-23 22:15:00,2.0,-1.0,28.92,SSW,197,0.0,0.0,87,0.00,,,0.00,Wunderground v.1.15,2013-01-24 03:15:00,
2013-01-23 22:20:00,2.0,-1.0,28.92,SSW,197,0.0,0.0,87,0.00,,,0.00,Wunderground v.1.15,2013-01-24 03:20:00,
2013-01-23 22:25:00,2.2,-0.8,28.92,SSW,197,0.0,0.0,87,0.00,,,0.00,Wunderground v.1.15,2013-01-24 03:25:00,
2013-01-23 22:30:00,2.2,-0.8,28.92,SSW,197,0.0,0.0,87,0.00,,,0.00,Wunderground v.1.15,2013-01-24 03:30:00,
2013-01-23 22:35:00,2.1,-0.9,28.92,SSW,197,0.0,0.0,87,0.00,,,0.00,Wunderground v.1.15,2013-01-24 03:35:00,
2013-01-23 22:40:00,2.3,-0.7,28.92,SSW,197,0.0,0.0,87,0.00,,,0.00,Wunderground v.1.15,2013-01-24 03:40:00,
2013-01-23 22:45:00,2.3,-0.7,28.92,SSW,197,0.0,0.0,87,0.00,,,0.00,Wunderground v.1.15,2013-01-24 03:45:00,
2013-01-23 22:50:00,2.2,-0.8,28.92,SSW,197,0.0,0.0,87,0.00,,,0.00,Wunderground v.1.15,2013-01-24 03:50:00,
2013-01-23 22:55:00,2.0,-1.0,28.92,SSW,197,0.0,0.0,87,0.00,,,0.00,Wunderground v.1.15,2013-01-24 03:55:00,
2013-01-23 23:00:00,1.8,-1.2,28.92,SSW,197,0.0,0.0,87,0.00,,,0.00,Wunderground v.1.15,2013-01-24 04:00:00,
2013-01-23 23:10:00,1.9,-1.1,28.92,SSW,197,0.0,0.0,87,0.00,,,0.00,Wunderground v.1.15,2013-01-24 04:10:00,
2013-01-23 23:15:00,2.1,-0.9,28.92,SSW,197,0.0,0.0,87,0.00,,,0.00,Wunderground v.1.15,2013-01-24 04:15:00,
2013-01-23 23:20:00,2.3,-0.7,28.92,SSW,197,0.0,0.0,87,0.00,,,0.00,Wunderground v.1.15,2013-01-24 04:20:00,
2013-01-23 23:25:00,2.6,-0.1,28.92,SSW,197,0.0,0.0,88,0.00,,,0.00,Wunderground v.1.15,2013-01-24 04:25:00,
2013-01-23 23:30:00,3.4,0.6,28.92,SSW,197,0.0,0.0,88,0.00,,,0.00,Wunderground v.1.15,2013-01-24 04:30:00,
2013-01-23 23:35:00,3.9,1.1,28.92,SSW,197,0.0,0.0,88,0.00,,,0.00,Wunderground v.1.15,2013-01-24 04:35:00,
2013-01-23 23:40:00,4.1,1.3,28.92,SSW,197,0.0,0.0,88,0.00,,,0.00,Wunderground v.1.15,2013-01-24 04:40:00,
2013-01-23 23:50:00,4.3,1.5,28.92,SSW,197,0.0,0.0,88,0.00,,,0.00,Wunderground v.1.15,2013-01-24 04:50:00,
2013-01-23 23:55:00,4.3,1.3,28.92,SSW,197,0.0,0.0,87,0.00,,,0.00,Wunderground v.1.15,2013-01-24 04:55:00,